Elefsis, Greece

5:20 PM EEST on July 24, 2016 (GMT +0300)
Elefsis Air Base

Weather History for LGEL - October, 2012

Change the Weather History Date:

Saturday, October 13, 2012

  Actual Average Record
Temperature  
Mean Temperature 73 °F -  
Max Temperature 82 °F 68 °F 84 °F (1997)
Min Temperature 64 °F 54 °F 55 °F (2005)
Cooling Degree Days 8    
Growing Degree Days 23 (Base 50)    
Moisture  
Dew Point 60 °F    
Average Humidity 66    
Maximum Humidity 88    
Minimum Humidity 39    
Precipitation  
Precipitation 0.00 in - - ()
Sea Level Pressure  
Sea Level Pressure 29.95 in    
Wind  
Wind Speed 3 mph ()    
Max Wind Speed 14 mph    
Max Gust Speed -    
Visibility 6.2 miles    
Events      
Averages and records for this station are not official NWS values.
T = Trace of Precipitation, MM = Missing Value Source: Averaged Metar Reports

Daily Weather History Graph

Daily Weather History Graph

Search for Another Location

Airport or City:

Trip Planner

Search our weather history database for the weather conditions in past years. The results will help you decide how hot, cold, wet, or windy it might be!

Date:

Astronomy

Oct. 13, 2012 Rise Set
Actual Time 7:32 AM EEST 6:50 PM EEST
Civil Twilight 7:06 AM EEST 7:17 PM EEST
Nautical Twilight 6:35 AM EEST 7:47 PM EEST
Astronomical Twilight 6:05 AM EEST 8:18 PM EEST
Moon 5:03 AM EEST (10/13) 5:22 PM EEST (10/13)
Length of Visible Light 12h 10m
Length of Day
11h 17m
Waning Crescent, 6% of the Moon is Illuminated
Oct 13
Waning Crescent
Oct 15
New
Oct 22
First Quarter
Oct 29
Full
Nov 7
Last Quarter

Hourly Weather History & Observations

Time (EEST) Temp. Heat Index Dew Point Humidity Pressure Visibility Wind Dir Wind Speed Gust Speed Precip Events Conditions
12:50 AM 69.8 °F - 64.4 °F 83% 29.98 in 6.2 mi Calm Calm - N/A   Scattered Clouds
1:50 AM 68.0 °F - 64.4 °F 88% 29.98 in 6.2 mi Calm Calm - N/A   Scattered Clouds
2:50 AM 68.0 °F - 62.6 °F 83% 29.98 in 6.2 mi Calm Calm - N/A   Scattered Clouds
3:50 AM 68.0 °F - 62.6 °F 83% 29.98 in 6.2 mi Calm Calm - N/A   Scattered Clouds
4:50 AM 68.0 °F - 62.6 °F 83% 29.95 in 6.2 mi Calm Calm - N/A   Mostly Cloudy
5:50 AM 66.2 °F - 62.6 °F 88% 29.95 in 6.2 mi Calm Calm - N/A   Scattered Clouds
6:20 AM 66.2 °F - 60.8 °F 83% 29.95 in 6.2 mi Calm Calm - N/A   Scattered Clouds
6:50 AM 66.2 °F - 60.8 °F 83% 29.95 in 6.2 mi NNW 4.6 mph - N/A   Scattered Clouds
7:20 AM 66.2 °F - 60.8 °F 83% 29.95 in 6.2 mi Variable 3.5 mph - N/A   Scattered Clouds
7:50 AM 64.4 °F - 60.8 °F 88% 29.95 in 6.2 mi Variable 3.5 mph - N/A   Scattered Clouds
8:20 AM 66.2 °F - 60.8 °F 83% 29.95 in 6.2 mi Calm Calm - N/A   Scattered Clouds
8:50 AM 66.2 °F - 62.6 °F 88% 29.98 in 6.2 mi Calm Calm - N/A   Scattered Clouds
9:20 AM 68.0 °F - 62.6 °F 83% 29.98 in 6.2 mi Calm Calm - N/A   Scattered Clouds
9:50 AM 73.4 °F - 62.6 °F 69% 29.98 in 6.2 mi Calm Calm - N/A   Scattered Clouds
10:20 AM 75.2 °F - 62.6 °F 65% 29.98 in 6.2 mi Variable 3.5 mph - N/A   Scattered Clouds
10:50 AM 75.2 °F - 62.6 °F 65% 29.98 in 6.2 mi SE 4.6 mph - N/A   Scattered Clouds
11:20 AM 77.0 °F - 60.8 °F 57% 29.98 in 6.2 mi SSE 4.6 mph - N/A   Scattered Clouds
11:50 AM 78.8 °F - 60.8 °F 54% 29.98 in 6.2 mi South 8.1 mph - N/A   Scattered Clouds
12:20 PM 78.8 °F - 62.6 °F 57% 29.98 in 6.2 mi SSW 13.8 mph - N/A   Scattered Clouds
12:50 PM 80.6 °F 81.1 °F 59.0 °F 48% 29.98 in 6.2 mi SSW 11.5 mph - N/A   Scattered Clouds
1:20 PM 78.8 °F - 60.8 °F 54% 29.98 in 6.2 mi South 8.1 mph - N/A   Scattered Clouds
1:50 PM 80.6 °F 81.5 °F 60.8 °F 51% 29.92 in 6.2 mi South 6.9 mph - N/A   Scattered Clouds
2:20 PM 80.6 °F 81.1 °F 59.0 °F 48% 29.92 in 6.2 mi SSE 6.9 mph - N/A   Scattered Clouds
2:50 PM 82.4 °F 81.7 °F 55.4 °F 39% 29.92 in 6.2 mi South 6.9 mph - N/A   Scattered Clouds
3:20 PM 80.6 °F 81.1 °F 59.0 °F 48% 29.92 in 6.2 mi South 11.5 mph - N/A   Scattered Clouds
3:50 PM 78.8 °F - 60.8 °F 54% 29.92 in 6.2 mi SSW 10.4 mph - N/A   Scattered Clouds
4:20 PM 78.8 °F - 60.8 °F 54% 29.92 in 6.2 mi SSW 10.4 mph - N/A   Scattered Clouds
4:50 PM 78.8 °F - 60.8 °F 54% 29.92 in 6.2 mi SSW 11.5 mph - N/A   Scattered Clouds
5:20 PM 78.8 °F - 62.6 °F 57% 29.92 in 6.2 mi South 11.5 mph - N/A   Scattered Clouds
5:50 PM 77.0 °F - 62.6 °F 61% 29.92 in 6.2 mi SSW 9.2 mph - N/A   Scattered Clouds
6:20 PM 75.2 °F - 64.4 °F 69% 29.92 in 6.2 mi South 8.1 mph - N/A   Scattered Clouds
6:50 PM 75.2 °F - 60.8 °F 61% 29.92 in 6.2 mi SSW 4.6 mph - N/A   Scattered Clouds
7:20 PM 75.2 °F - 53.6 °F 47% 29.92 in 6.2 mi Variable 3.5 mph - N/A   Scattered Clouds
7:50 PM 75.2 °F - 55.4 °F 50% 29.92 in 6.2 mi Calm Calm - N/A   Scattered Clouds
8:20 PM 73.4 °F - 57.2 °F 57% 29.92 in 6.2 mi Calm Calm - N/A   Scattered Clouds
8:50 PM 71.6 °F - 57.2 °F 60% 29.92 in 6.2 mi Variable 3.5 mph - N/A   Scattered Clouds
9:20 PM 69.8 °F - 57.2 °F 64% 29.95 in 6.2 mi North 5.8 mph - N/A   Scattered Clouds
9:50 PM 69.8 °F - 57.2 °F 64% 29.95 in 6.2 mi Variable 2.3 mph - N/A   Partly Cloudy
10:20 PM 69.8 °F - 57.2 °F 64% 29.95 in - Calm Calm - N/A   Clear
10:50 PM 68.0 °F - 59.0 °F 73% 29.95 in - Variable 2.3 mph - N/A   Clear
11:20 PM 68.0 °F - 57.2 °F 68% 29.95 in - Variable 1.2 mph - N/A   Clear
11:50 PM 68.0 °F - 59.0 °F 73% 29.95 in - Variable 2.3 mph - N/A   Clear